RYR9835 EPMO-LIEA

Flight info

Callsign RYR9835
Flight time 2h 25m
Altitude 34000
Route EVINA NAVUR REGLI LANUX BAGSI RASTA/N0463F350 MOBDO OSBUL OLETI TORTU OKROK AJO M194 REVDO
Aircraft B738/M-SDE2E3FGHIRWXY/LB1

Departure

Time 2026-05-06 11:06
Airport Warsaw Modlin Airport (EPMO)

Arrival

Time 2026-05-06 13:32
Airport Alghero-Fertilia Airport (LIEA)
Time Latitude Longitude Altitude Speed Heading
2026-05-06 10:44 52.44726 20.65014 356 ft 0 kts 211°
2026-05-06 10:57 52.44740 20.65027 357 ft 4 kts 201°
2026-05-06 10:57 52.44762 20.65033 356 ft 4 kts 142°
2026-05-06 10:57 52.44767 20.65022 356 ft 0 kts 81°
2026-05-06 10:59 52.44768 20.65027 356 ft 2 kts 81°
2026-05-06 11:00 52.44772 20.65077 349 ft 5 kts 81°
2026-05-06 11:00 52.44778 20.65136 354 ft 5 kts 81°
2026-05-06 11:00 52.44784 20.65201 349 ft 7 kts 81°
2026-05-06 11:00 52.44794 20.65305 358 ft 11 kts 81°
2026-05-06 11:01 52.44805 20.65426 353 ft 11 kts 82°
2026-05-06 11:01 52.44815 20.65544 352 ft 10 kts 82°
2026-05-06 11:01 52.44826 20.65658 349 ft 10 kts 81°
2026-05-06 11:01 52.44839 20.65790 358 ft 13 kts 81°
2026-05-06 11:02 52.44851 20.65930 357 ft 13 kts 82°
2026-05-06 11:02 52.44865 20.66079 349 ft 13 kts 81°
2026-05-06 11:02 52.44878 20.66228 356 ft 14 kts 81°
2026-05-06 11:02 52.44893 20.66378 349 ft 13 kts 82°
2026-05-06 11:03 52.44906 20.66529 356 ft 14 kts 81°
2026-05-06 11:03 52.44920 20.66678 349 ft 13 kts 82°
2026-05-06 11:03 52.44934 20.66823 349 ft 13 kts 80°
2026-05-06 11:03 52.44948 20.66969 352 ft 13 kts 78°
2026-05-06 11:04 52.45001 20.67071 352 ft 13 kts
2026-05-06 11:04 52.45087 20.67052 357 ft 12 kts 351°
2026-05-06 11:04 52.45172 20.67031 352 ft 12 kts 350°
2026-05-06 11:04 52.45251 20.66991 353 ft 12 kts 340°
2026-05-06 11:05 52.45283 20.66904 359 ft 5 kts 260°
2026-05-06 11:05 52.45282 20.66902 358 ft 0 kts 260°
2026-05-06 11:05 52.45274 20.66819 348 ft 33 kts 261°
2026-05-06 11:05 52.45195 20.65998 357 ft 110 kts 261°
2026-05-06 11:06 52.45021 20.64409 427 ft 164 kts 251°
2026-05-06 11:06 52.44802 20.62492 1158 ft 178 kts 258°
2026-05-06 11:06 52.44647 20.60422 1863 ft 195 kts 257°
2026-05-06 11:06 52.44406 20.58212 2588 ft 189 kts 256°
2026-05-06 11:07 52.44216 20.56081 3170 ft 196 kts 269°
2026-05-06 11:07 52.44705 20.53909 3491 ft 221 kts 305°
2026-05-06 11:07 52.46043 20.52439 3678 ft 256 kts 340°
2026-05-06 11:07 52.47929 20.52091 4130 ft 277 kts 354°
2026-05-06 11:08 52.49877 20.51979 4863 ft 283 kts 354°
2026-05-06 11:08 52.51855 20.51851 5636 ft 286 kts 354°
2026-05-06 11:08 52.53825 20.51698 6383 ft 289 kts 354°
2026-05-06 11:08 52.55842 20.51910 7070 ft 298 kts 16°
2026-05-06 11:09 52.57588 20.53745 7770 ft 304 kts 50°
2026-05-06 11:09 52.58581 20.56797 8466 ft 305 kts 78°
2026-05-06 11:09 52.58731 20.60245 9144 ft 304 kts 101°
2026-05-06 11:09 52.58142 20.63546 9812 ft 301 kts 119°
2026-05-06 11:10 52.57211 20.66702 10180 ft 316 kts 122°
2026-05-06 11:10 52.56162 20.70011 10352 ft 337 kts 122°
2026-05-06 11:10 52.55039 20.73531 10511 ft 358 kts 121°
2026-05-06 11:10 52.53861 20.77268 10661 ft 377 kts 122°
2026-05-06 11:11 52.52300 20.80756 10879 ft 382 kts 143°
2026-05-06 11:11 52.50003 20.82798 11416 ft 374 kts 169°
2026-05-06 11:11 52.47446 20.83277 12097 ft 368 kts 185°
2026-05-06 11:11 52.44935 20.82595 12700 ft 367 kts 198°
2026-05-06 11:12 52.42489 20.81358 13305 ft 369 kts 199°
2026-05-06 11:12 52.40040 20.80069 13874 ft 371 kts 199°
2026-05-06 11:12 52.37570 20.78763 14345 ft 375 kts 199°
2026-05-06 11:12 52.35073 20.77457 14831 ft 379 kts 199°
2026-05-06 11:13 52.32548 20.76152 15318 ft 382 kts 199°
2026-05-06 11:13 52.29996 20.74846 15805 ft 386 kts 199°
2026-05-06 11:13 52.27423 20.73539 16322 ft 389 kts 199°
2026-05-06 11:13 52.24828 20.72226 16783 ft 392 kts 199°
2026-05-06 11:14 52.22210 20.70906 17231 ft 396 kts 199°
2026-05-06 11:14 52.19569 20.69576 17686 ft 399 kts 199°
2026-05-06 11:14 52.16940 20.68255 18117 ft 402 kts 199°
2026-05-06 11:14 52.14257 20.66908 18487 ft 405 kts 199°
2026-05-06 11:15 52.11523 20.65537 18905 ft 407 kts 199°
2026-05-06 11:15 52.08846 20.64196 19337 ft 408 kts 199°
2026-05-06 11:15 52.06123 20.62834 19749 ft 411 kts 199°
2026-05-06 11:15 52.03385 20.61465 20140 ft 413 kts 199°
2026-05-06 11:16 52.00632 20.60091 20546 ft 415 kts 199°
2026-05-06 11:16 51.97862 20.58710 20934 ft 417 kts 199°
2026-05-06 11:16 51.95080 20.57325 21311 ft 419 kts 199°
2026-05-06 11:16 51.92300 20.55854 21675 ft 421 kts 201°
2026-05-06 11:17 51.89539 20.54237 22051 ft 422 kts 202°
2026-05-06 11:17 51.86784 20.52577 22429 ft 424 kts 202°
2026-05-06 11:17 51.84010 20.50909 22761 ft 426 kts 201°
2026-05-06 11:17 51.81217 20.49250 23093 ft 429 kts 201°
2026-05-06 11:18 51.78410 20.47602 23420 ft 431 kts 201°
2026-05-06 11:18 51.75585 20.45957 23707 ft 432 kts 201°
2026-05-06 11:18 51.72754 20.44314 24007 ft 433 kts 201°
2026-05-06 11:18 51.69909 20.42664 24305 ft 435 kts 201°
2026-05-06 11:19 51.67059 20.41023 24595 ft 436 kts 200°
2026-05-06 11:19 51.64120 20.39753 24862 ft 440 kts 192°
2026-05-06 11:19 51.61068 20.39214 25131 ft 443 kts 187°
2026-05-06 11:19 51.57990 20.38825 25395 ft 444 kts 187°
2026-05-06 11:20 51.54904 20.38409 25643 ft 446 kts 188°
2026-05-06 11:20 51.51812 20.37962 25890 ft 447 kts 188°
2026-05-06 11:20 51.48711 20.37497 26138 ft 448 kts 188°
2026-05-06 11:20 51.45606 20.37027 26377 ft 449 kts 188°
2026-05-06 11:21 51.42505 20.36449 26671 ft 447 kts 193°
2026-05-06 11:21 51.39532 20.35116 27031 ft 442 kts 203°
2026-05-06 11:21 51.36734 20.33137 27445 ft 438 kts 209°
2026-05-06 11:21 51.34152 20.30597 27806 ft 434 kts 218°
2026-05-06 11:22 51.31754 20.27673 28162 ft 433 kts 219°
2026-05-06 11:22 51.29367 20.24741 28496 ft 432 kts 219°
2026-05-06 11:22 51.26981 20.21821 28869 ft 431 kts 218°
2026-05-06 11:22 51.24599 20.18931 29238 ft 429 kts 218°
2026-05-06 11:23 51.22219 20.16060 29539 ft 430 kts 218°
2026-05-06 11:23 51.19829 20.13190 29791 ft 431 kts 218°
2026-05-06 11:23 51.17435 20.10325 30105 ft 429 kts 218°
2026-05-06 11:23 51.15054 20.07480 30453 ft 427 kts 218°
2026-05-06 11:24 51.12684 20.04651 30763 ft 425 kts 218°
2026-05-06 11:24 51.10348 20.01865 31031 ft 425 kts 218°
2026-05-06 11:24 51.07984 19.99048 31316 ft 424 kts 218°
2026-05-06 11:24 51.05623 19.96239 31622 ft 423 kts 218°
2026-05-06 11:25 51.03273 19.93446 31894 ft 422 kts 218°
2026-05-06 11:25 51.01041 19.90419 32109 ft 422 kts 225°
2026-05-06 11:25 50.99120 19.86910 32363 ft 421 kts 232°
2026-05-06 11:25 50.97327 19.83238 32646 ft 420 kts 232°
2026-05-06 11:26 50.95539 19.79583 32915 ft 419 kts 232°
2026-05-06 11:26 50.93743 19.75929 33117 ft 420 kts 232°
2026-05-06 11:26 50.91941 19.72282 33317 ft 420 kts 231°
2026-05-06 11:26 50.90135 19.68644 33557 ft 420 kts 231°
2026-05-06 11:27 50.88328 19.65016 33805 ft 419 kts 231°
2026-05-06 11:27 50.84702 19.57763 33808 ft 419 kts 232°
2026-05-06 11:28 50.81105 19.50590 33800 ft 414 kts 231°
2026-05-06 11:28 50.77532 19.43484 33807 ft 412 kts 231°
2026-05-06 11:29 50.73967 19.36415 33813 ft 411 kts 231°
2026-05-06 11:29 50.70403 19.29365 33813 ft 411 kts 231°
2026-05-06 11:30 50.66826 19.22308 33806 ft 412 kts 232°
2026-05-06 11:30 50.63234 19.15243 33815 ft 414 kts 231°
2026-05-06 11:31 50.59648 19.08208 33832 ft 416 kts 231°
2026-05-06 11:31 50.55991 19.01053 33832 ft 418 kts 231°
2026-05-06 11:32 50.52367 18.93981 33829 ft 419 kts 231°
2026-05-06 11:32 50.48710 18.86863 33823 ft 419 kts 231°
2026-05-06 11:33 50.45042 18.79747 33835 ft 418 kts 231°
2026-05-06 11:33 50.41384 18.72668 33815 ft 417 kts 231°
2026-05-06 11:34 50.37738 18.65629 33818 ft 415 kts 231°
2026-05-06 11:34 50.34099 18.58624 33823 ft 414 kts 231°
2026-05-06 11:35 50.30462 18.51642 33819 ft 413 kts 231°
2026-05-06 11:35 50.26830 18.44687 33829 ft 413 kts 231°
2026-05-06 11:36 50.23199 18.37755 33826 ft 412 kts 231°
2026-05-06 11:36 50.19566 18.30834 33825 ft 412 kts 231°
2026-05-06 11:37 50.15932 18.23931 33830 ft 412 kts 231°
2026-05-06 11:37 50.12293 18.17036 33823 ft 411 kts 231°
2026-05-06 11:38 50.08653 18.10157 33838 ft 412 kts 231°
2026-05-06 11:38 50.05007 18.03281 33833 ft 412 kts 230°
2026-05-06 11:39 50.01457 17.96288 33837 ft 412 kts 234°
2026-05-06 11:39 49.98125 17.89036 33839 ft 412 kts 234°
2026-05-06 11:40 49.94804 17.81759 33828 ft 413 kts 234°
2026-05-06 11:40 49.91466 17.74503 33842 ft 413 kts 234°
2026-05-06 11:41 49.88108 17.67253 33846 ft 414 kts 234°
2026-05-06 11:41 49.84738 17.60005 33842 ft 415 kts 234°
2026-05-06 11:42 49.81359 17.52760 33847 ft 415 kts 234°
2026-05-06 11:42 49.78546 17.46743 33849 ft 415 kts 234°
2026-05-06 11:43 49.75155 17.39506 33854 ft 416 kts 234°
2026-05-06 11:43 49.71758 17.32278 33850 ft 415 kts 234°
2026-05-06 11:44 49.66657 17.21461 33839 ft 415 kts 233°
2026-05-06 11:44 49.63255 17.14270 33839 ft 415 kts 233°
2026-05-06 11:45 49.59850 17.07093 33832 ft 414 kts 233°
2026-05-06 11:45 49.56449 16.99944 33841 ft 414 kts 233°
2026-05-06 11:46 49.53044 16.92804 33835 ft 413 kts 233°
2026-05-06 11:46 49.49639 16.85685 33832 ft 413 kts 233°
2026-05-06 11:47 49.46232 16.78579 33830 ft 413 kts 233°
2026-05-06 11:47 49.42815 16.71473 33825 ft 413 kts 233°
2026-05-06 11:48 49.39400 16.64389 33833 ft 412 kts 233°
2026-05-06 11:48 49.35985 16.57325 33820 ft 412 kts 233°
2026-05-06 11:49 49.32574 16.50286 33819 ft 411 kts 233°
2026-05-06 11:49 49.29163 16.43268 33815 ft 410 kts 233°
2026-05-06 11:50 49.25752 16.36265 33822 ft 410 kts 233°
2026-05-06 11:50 49.22365 16.29332 33820 ft 409 kts 233°
2026-05-06 11:51 49.18954 16.22367 33833 ft 409 kts 233°
2026-05-06 11:51 49.15543 16.15419 33832 ft 409 kts 233°
2026-05-06 11:52 49.12124 16.08474 33852 ft 409 kts 233°
2026-05-06 11:52 49.08698 16.01534 33842 ft 409 kts 233°
2026-05-06 11:53 49.05267 15.94598 33824 ft 409 kts 233°
2026-05-06 11:53 49.01832 15.87674 33822 ft 410 kts 233°
2026-05-06 11:54 48.98394 15.80762 33809 ft 409 kts 233°
2026-05-06 11:54 48.94958 15.73871 33811 ft 408 kts 233°
2026-05-06 11:55 48.91526 15.67000 33817 ft 408 kts 233°
2026-05-06 11:55 48.88043 15.60193 33808 ft 408 kts 230°
2026-05-06 11:56 48.84201 15.53850 33811 ft 408 kts 227°
2026-05-06 11:56 48.80297 15.47598 33811 ft 409 kts 228°
2026-05-06 11:57 48.76395 15.41312 33813 ft 409 kts 228°
2026-05-06 11:57 48.72516 15.35033 33806 ft 407 kts 228°
2026-05-06 11:58 48.68653 15.28777 33796 ft 406 kts 228°
2026-05-06 11:58 48.64801 15.22549 33800 ft 405 kts 228°
2026-05-06 11:59 48.60953 15.16346 33801 ft 404 kts 228°
2026-05-06 11:59 48.57105 15.10156 33802 ft 404 kts 228°
2026-05-06 12:00 48.53255 15.03977 33794 ft 404 kts 228°
2026-05-06 12:00 48.49415 14.97831 33807 ft 402 kts 228°
2026-05-06 12:01 48.45610 14.91753 33809 ft 401 kts 228°
2026-05-06 12:01 48.41780 14.85650 33804 ft 401 kts 228°
2026-05-06 12:02 48.37947 14.79558 33801 ft 401 kts 228°
2026-05-06 12:02 48.34111 14.73469 33808 ft 401 kts 228°
2026-05-06 12:03 48.30302 14.67371 33791 ft 399 kts 226°
2026-05-06 12:03 48.26425 14.61438 33796 ft 397 kts 227°
2026-05-06 12:04 48.22635 14.55417 33786 ft 397 kts 228°
2026-05-06 12:04 48.18845 14.49412 33788 ft 396 kts 227°
2026-05-06 12:05 48.15046 14.43445 33786 ft 394 kts 227°
2026-05-06 12:05 48.11274 14.37544 33773 ft 390 kts 227°
2026-05-06 12:06 48.07528 14.31695 33777 ft 388 kts 227°
2026-05-06 12:06 48.03823 14.25845 33782 ft 387 kts 229°
2026-05-06 12:07 48.00208 14.19903 33784 ft 386 kts 229°
2026-05-06 12:07 47.96597 14.13959 33793 ft 386 kts 229°
2026-05-06 12:08 47.92974 14.08027 33787 ft 388 kts 228°
2026-05-06 12:08 47.89337 14.02101 33801 ft 388 kts 228°
2026-05-06 12:09 47.85695 13.96183 33795 ft 387 kts 228°
2026-05-06 12:09 47.82046 13.90267 33788 ft 388 kts 228°
2026-05-06 12:10 47.78393 13.84359 33781 ft 388 kts 228°
2026-05-06 12:10 47.74726 13.78440 33783 ft 390 kts 228°
2026-05-06 12:11 47.71040 13.72503 33797 ft 391 kts 228°
2026-05-06 12:11 47.67340 13.66559 33784 ft 392 kts 228°
2026-05-06 12:12 47.63662 13.60661 33797 ft 392 kts 228°
2026-05-06 12:12 47.59960 13.54738 33801 ft 391 kts 228°
2026-05-06 12:13 47.56257 13.48827 33814 ft 392 kts 228°
2026-05-06 12:13 47.52537 13.42899 33793 ft 393 kts 228°
2026-05-06 12:14 47.48820 13.37008 33785 ft 391 kts 227°
2026-05-06 12:14 47.45026 13.31258 33811 ft 391 kts 226°
2026-05-06 12:15 47.41210 13.25560 33796 ft 390 kts 226°
2026-05-06 12:15 47.37406 13.19873 33795 ft 389 kts 226°
2026-05-06 12:16 47.33610 13.14193 33825 ft 389 kts 226°
2026-05-06 12:16 47.29808 13.08510 33827 ft 389 kts 226°
2026-05-06 12:17 47.26006 13.02838 33788 ft 389 kts 226°
2026-05-06 12:17 47.22190 12.97156 33804 ft 391 kts 226°
2026-05-06 12:18 47.18357 12.91463 33821 ft 393 kts 226°
2026-05-06 12:18 47.14502 12.85747 33869 ft 395 kts 226°
2026-05-06 12:19 47.10663 12.80071 33841 ft 394 kts 226°
2026-05-06 12:19 47.06813 12.74389 33826 ft 392 kts 226°
2026-05-06 12:20 47.02966 12.68724 33856 ft 392 kts 225°
2026-05-06 12:20 46.99108 12.63055 33860 ft 393 kts 225°
2026-05-06 12:21 46.95253 12.57403 33887 ft 392 kts 225°
2026-05-06 12:21 46.91397 12.51761 33890 ft 392 kts 225°
2026-05-06 12:22 46.87556 12.46152 33904 ft 389 kts 225°
2026-05-06 12:22 46.83718 12.40562 33949 ft 388 kts 225°
2026-05-06 12:23 46.79877 12.34979 33907 ft 391 kts 225°
2026-05-06 12:23 46.76033 12.29402 33950 ft 390 kts 225°
2026-05-06 12:24 46.72176 12.23818 33939 ft 392 kts 225°
2026-05-06 12:24 46.68307 12.18233 33870 ft 390 kts 225°
2026-05-06 12:25 46.64454 12.12680 33870 ft 390 kts 225°
2026-05-06 12:25 46.60596 12.07128 33871 ft 391 kts 225°
2026-05-06 12:26 46.56728 12.01571 33883 ft 390 kts 224°
2026-05-06 12:26 46.52859 11.96031 33874 ft 391 kts 224°
2026-05-06 12:27 46.48990 11.90500 33885 ft 391 kts 224°
2026-05-06 12:27 46.45147 11.85017 33879 ft 390 kts 224°
2026-05-06 12:28 46.41093 11.79751 33867 ft 390 kts 216°
2026-05-06 12:28 46.36606 11.75427 33893 ft 390 kts 215°
2026-05-06 12:29 46.32101 11.71047 33888 ft 391 kts 215°
2026-05-06 12:29 46.27587 11.66647 33879 ft 391 kts 215°
2026-05-06 12:30 46.23074 11.62252 33901 ft 392 kts 215°
2026-05-06 12:30 46.19286 11.58569 33875 ft 392 kts 215°
2026-05-06 12:31 46.14769 11.54186 33902 ft 391 kts 215°
2026-05-06 12:31 46.10246 11.49805 33909 ft 393 kts 215°
2026-05-06 12:32 46.05742 11.45452 33892 ft 393 kts 215°
2026-05-06 12:32 46.01200 11.41071 33887 ft 393 kts 215°
2026-05-06 12:33 45.96647 11.36688 33905 ft 393 kts 215°
2026-05-06 12:33 45.92096 11.32317 33909 ft 393 kts 215°
2026-05-06 12:34 45.87535 11.27941 33904 ft 396 kts 215°
2026-05-06 12:34 45.82961 11.23565 33893 ft 395 kts 215°
2026-05-06 12:35 45.78401 11.19212 33897 ft 393 kts 215°
2026-05-06 12:35 45.73847 11.14873 33901 ft 394 kts 215°
2026-05-06 12:36 45.69295 11.10544 33901 ft 393 kts 215°
2026-05-06 12:36 45.64738 11.06218 33897 ft 394 kts 215°
2026-05-06 12:37 45.60171 11.01891 33881 ft 394 kts 215°
2026-05-06 12:37 45.55592 10.97562 33877 ft 395 kts 215°
2026-05-06 12:38 45.51043 10.93195 33891 ft 393 kts 217°
2026-05-06 12:38 45.46513 10.88862 33881 ft 391 kts 212°
2026-05-06 12:39 45.41899 10.84774 33887 ft 390 kts 215°
2026-05-06 12:39 45.37409 10.80522 33891 ft 391 kts 215°
2026-05-06 12:40 45.32881 10.76237 33882 ft 391 kts 215°
2026-05-06 12:40 45.28334 10.71970 33887 ft 392 kts 215°
2026-05-06 12:41 45.23779 10.67718 33879 ft 393 kts 215°
2026-05-06 12:41 45.19198 10.63454 33884 ft 395 kts 215°
2026-05-06 12:42 45.14482 10.59386 33883 ft 399 kts 211°
2026-05-06 12:42 45.09565 10.55687 33878 ft 401 kts 210°
2026-05-06 12:43 45.04624 10.52005 33875 ft 402 kts 210°
2026-05-06 12:43 44.99684 10.48290 33869 ft 402 kts 210°
2026-05-06 12:44 44.94757 10.44567 33878 ft 402 kts 210°
2026-05-06 12:44 44.89824 10.40837 33864 ft 402 kts 210°
2026-05-06 12:45 44.84907 10.37127 33855 ft 400 kts 210°
2026-05-06 12:46 44.77565 10.31599 33859 ft 398 kts 210°
2026-05-06 12:46 44.72694 10.27940 33834 ft 397 kts 210°
2026-05-06 12:47 44.67828 10.24292 33864 ft 396 kts 210°
2026-05-06 12:47 44.62972 10.20659 33861 ft 395 kts 210°
2026-05-06 12:48 44.58118 10.17034 33871 ft 395 kts 210°
2026-05-06 12:48 44.53260 10.13413 33845 ft 396 kts 211°
2026-05-06 12:49 44.48390 10.09790 33875 ft 397 kts 211°
2026-05-06 12:49 44.43489 10.06150 33879 ft 399 kts 211°
2026-05-06 12:50 44.38594 10.02522 33886 ft 402 kts 210°
2026-05-06 12:50 44.33647 9.98863 33884 ft 404 kts 210°
2026-05-06 12:51 44.28680 9.95197 33906 ft 404 kts 210°
2026-05-06 12:51 44.23709 9.91534 33911 ft 404 kts 210°
2026-05-06 12:52 44.18744 9.87884 33905 ft 403 kts 210°
2026-05-06 12:52 44.13779 9.84240 33914 ft 403 kts 210°
2026-05-06 12:53 44.08815 9.80603 33918 ft 402 kts 210°
2026-05-06 12:53 44.03885 9.76999 33906 ft 399 kts 210°
2026-05-06 12:54 43.98979 9.73419 33904 ft 397 kts 210°
2026-05-06 12:54 43.94100 9.69865 33908 ft 395 kts 210°
2026-05-06 12:55 43.89231 9.66324 33906 ft 395 kts 210°
2026-05-06 12:55 43.84372 9.62797 33901 ft 394 kts 210°
2026-05-06 12:56 43.79510 9.59275 33899 ft 395 kts 210°
2026-05-06 12:56 43.74640 9.55753 33907 ft 395 kts 210°
2026-05-06 12:57 43.69763 9.52233 33900 ft 396 kts 210°
2026-05-06 12:57 43.64914 9.48740 33902 ft 396 kts 210°
2026-05-06 12:58 43.60022 9.45222 33917 ft 397 kts 210°
2026-05-06 12:58 43.55120 9.41704 33910 ft 397 kts 210°
2026-05-06 12:59 43.50217 9.38191 33902 ft 397 kts 210°
2026-05-06 12:59 43.45310 9.34683 33903 ft 397 kts 210°
2026-05-06 13:00 43.40398 9.31176 33902 ft 398 kts 210°
2026-05-06 13:00 43.35472 9.27666 33916 ft 399 kts 210°
2026-05-06 13:01 43.30538 9.24157 33912 ft 400 kts 210°
2026-05-06 13:01 43.25589 9.20644 33885 ft 401 kts 210°
2026-05-06 13:02 43.20632 9.17132 33912 ft 402 kts 210°
2026-05-06 13:02 43.15662 9.13616 33920 ft 402 kts 210°
2026-05-06 13:03 43.10686 9.10103 33916 ft 403 kts 210°
2026-05-06 13:03 43.05701 9.06591 33911 ft 403 kts 210°
2026-05-06 13:04 43.00720 9.03087 33920 ft 402 kts 210°
2026-05-06 13:04 42.95747 8.99595 33920 ft 402 kts 210°
2026-05-06 13:05 42.90773 8.96108 33921 ft 402 kts 210°
2026-05-06 13:05 42.85797 8.92626 33907 ft 402 kts 209°
2026-05-06 13:06 42.80646 8.89632 33928 ft 406 kts 199°
2026-05-06 13:06 42.75022 8.88394 33939 ft 413 kts 189°
2026-05-06 13:07 42.69277 8.87785 33936 ft 414 kts 189°
2026-05-06 13:07 42.63566 8.87166 33932 ft 415 kts 189°
2026-05-06 13:08 42.57812 8.86522 33933 ft 416 kts 189°
2026-05-06 13:08 42.52039 8.85868 33940 ft 417 kts 189°
2026-05-06 13:09 42.46267 8.85214 33943 ft 416 kts 189°
2026-05-06 13:09 42.40505 8.84572 33964 ft 414 kts 189°
2026-05-06 13:10 42.34723 8.83917 33511 ft 423 kts 189°
2026-05-06 13:10 42.31802 8.83583 32959 ft 419 kts 189°
2026-05-06 13:10 42.28898 8.83255 32244 ft 418 kts 189°
2026-05-06 13:10 42.25995 8.82928 31487 ft 419 kts 189°
2026-05-06 13:11 42.23095 8.82602 30774 ft 419 kts 189°
2026-05-06 13:11 42.20184 8.82275 30008 ft 420 kts 189°
2026-05-06 13:11 42.17269 8.81947 29125 ft 421 kts 189°
2026-05-06 13:11 42.14346 8.81620 28272 ft 422 kts 189°
2026-05-06 13:12 42.11418 8.81292 27399 ft 422 kts 189°
2026-05-06 13:12 42.08488 8.80965 26624 ft 421 kts 189°
2026-05-06 13:12 42.05593 8.80644 26014 ft 416 kts 189°
2026-05-06 13:12 42.02719 8.80324 25378 ft 412 kts 189°
2026-05-06 13:13 41.99879 8.80009 24787 ft 408 kts 189°
2026-05-06 13:13 41.97060 8.79696 24188 ft 404 kts 189°
2026-05-06 13:13 41.94270 8.79384 23593 ft 401 kts 190°
2026-05-06 13:13 41.91500 8.79075 22903 ft 398 kts 189°
2026-05-06 13:14 41.88755 8.78768 22265 ft 394 kts 189°
2026-05-06 13:14 41.86041 8.78466 21649 ft 390 kts 189°
2026-05-06 13:14 41.83351 8.78167 21076 ft 386 kts 189°
2026-05-06 13:14 41.80688 8.77871 20486 ft 383 kts 189°
2026-05-06 13:15 41.78041 8.77578 19908 ft 381 kts 188°
2026-05-06 13:15 41.75412 8.77226 19110 ft 383 kts 190°
2026-05-06 13:15 41.72764 8.76738 18410 ft 384 kts 191°
2026-05-06 13:15 41.70122 8.76207 17717 ft 383 kts 191°
2026-05-06 13:16 41.67494 8.75673 17096 ft 380 kts 192°
2026-05-06 13:16 41.64924 8.75158 16502 ft 377 kts 191°
2026-05-06 13:16 41.62305 8.74641 15928 ft 373 kts 191°
2026-05-06 13:16 41.59747 8.74143 15359 ft 371 kts 191°
2026-05-06 13:17 41.57204 8.73652 14803 ft 368 kts 191°
2026-05-06 13:17 41.55526 8.73329 14437 ft 366 kts 191°
2026-05-06 13:17 41.52204 8.72691 13708 ft 363 kts 191°
2026-05-06 13:17 41.49710 8.72214 13100 ft 361 kts 191°
2026-05-06 13:18 41.47234 8.71740 12536 ft 358 kts 191°
2026-05-06 13:18 41.44782 8.71271 11982 ft 354 kts 191°
2026-05-06 13:18 41.42346 8.70805 11440 ft 351 kts 191°
2026-05-06 13:18 41.39944 8.70346 11094 ft 343 kts 191°
2026-05-06 13:19 41.37629 8.69906 10943 ft 330 kts 191°
2026-05-06 13:19 41.36113 8.69618 10851 ft 322 kts 191°
2026-05-06 13:19 41.33935 8.69202 10712 ft 310 kts 192°
2026-05-06 13:19 41.31923 8.68417 10561 ft 296 kts 205°
2026-05-06 13:20 41.30081 8.67320 10424 ft 285 kts 206°
2026-05-06 13:20 41.28301 8.66245 10294 ft 276 kts 206°
2026-05-06 13:20 41.26600 8.65228 10181 ft 269 kts 206°
2026-05-06 13:20 41.24898 8.64221 10083 ft 266 kts 206°
2026-05-06 13:21 41.23212 8.63231 9941 ft 264 kts 206°
2026-05-06 13:21 41.21513 8.62240 9656 ft 269 kts 206°
2026-05-06 13:21 41.19789 8.61239 9372 ft 272 kts 205°
2026-05-06 13:21 41.18047 8.60232 9065 ft 273 kts 205°
2026-05-06 13:22 41.16318 8.59234 8772 ft 270 kts 205°
2026-05-06 13:22 41.14602 8.58243 8465 ft 268 kts 205°
2026-05-06 13:22 41.12898 8.57261 8167 ft 266 kts 205°
2026-05-06 13:22 41.11204 8.56283 7872 ft 265 kts 205°
2026-05-06 13:23 41.09520 8.55313 7583 ft 263 kts 205°
2026-05-06 13:23 41.07845 8.54348 7308 ft 262 kts 205°
2026-05-06 13:23 41.06169 8.53383 7014 ft 263 kts 205°
2026-05-06 13:23 41.04487 8.52437 6732 ft 263 kts 204°
2026-05-06 13:24 41.02791 8.51532 6436 ft 263 kts 203°
2026-05-06 13:24 41.01089 8.50636 6134 ft 263 kts 203°
2026-05-06 13:24 40.99391 8.49742 5851 ft 262 kts 203°
2026-05-06 13:24 40.97699 8.48850 5574 ft 262 kts 204°
2026-05-06 13:25 40.96010 8.47956 5302 ft 261 kts 203°
2026-05-06 13:25 40.94328 8.47066 5026 ft 260 kts 204°
2026-05-06 13:25 40.92663 8.46184 4741 ft 256 kts 204°
2026-05-06 13:25 40.91034 8.45328 4617 ft 246 kts 204°
2026-05-06 13:26 40.89489 8.44514 4493 ft 235 kts 204°
2026-05-06 13:26 40.87988 8.43722 4384 ft 229 kts 202°
2026-05-06 13:26 40.86507 8.42977 4275 ft 227 kts 203°
2026-05-06 13:26 40.85053 8.42194 4152 ft 226 kts 205°
2026-05-06 13:27 40.83608 8.41361 3894 ft 225 kts 205°
2026-05-06 13:27 40.82209 8.40528 3646 ft 216 kts 206°
2026-05-06 13:27 40.80880 8.39727 3563 ft 207 kts 206°
2026-05-06 13:27 40.79551 8.38925 3329 ft 211 kts 205°
2026-05-06 13:28 40.78252 8.38143 3052 ft 204 kts 206°
2026-05-06 13:28 40.76967 8.37369 2788 ft 197 kts 205°
2026-05-06 13:28 40.75758 8.36641 2526 ft 191 kts 205°
2026-05-06 13:28 40.74578 8.35928 2280 ft 182 kts 205°
2026-05-06 13:29 40.73463 8.35257 2063 ft 168 kts 205°
2026-05-06 13:29 40.72414 8.34624 1842 ft 165 kts 206°
2026-05-06 13:29 40.71358 8.33987 1626 ft 170 kts 205°
2026-05-06 13:29 40.70262 8.33326 1393 ft 171 kts 205°
2026-05-06 13:30 40.69224 8.32700 1185 ft 160 kts 205°
2026-05-06 13:30 40.68249 8.32113 959 ft 148 kts 206°
2026-05-06 13:30 40.67324 8.31554 751 ft 144 kts 205°
2026-05-06 13:30 40.66418 8.31007 571 ft 143 kts 205°
2026-05-06 13:31 40.65518 8.30468 366 ft 142 kts 205°
2026-05-06 13:31 40.64634 8.29932 165 ft 139 kts 205°
2026-05-06 13:31 40.63781 8.29420 87 ft 123 kts 205°
2026-05-06 13:31 40.63138 8.29033 85 ft 78 kts 204°
2026-05-06 13:32 40.62870 8.28872 82 ft 32 kts 203°
2026-05-06 13:32 40.62718 8.28835 75 ft 22 kts 179°
2026-05-06 13:32 40.62627 8.28845 72 ft 7 kts 164°
2026-05-06 13:32 40.62597 8.28895 73 ft 8 kts 96°
2026-05-06 13:33 40.62625 8.28966 73 ft 11 kts 40°
2026-05-06 13:33 40.62706 8.29020 73 ft 15 kts 24°
2026-05-06 13:33 40.62794 8.29073 73 ft 12 kts 25°
2026-05-06 13:33 40.62847 8.29156 71 ft 12 kts 72°
2026-05-06 13:34 40.62871 8.29247 75 ft 10 kts 67°
2026-05-06 13:34 40.62928 8.29293 74 ft 10 kts 25°
2026-05-06 13:34 40.62991 8.29304 81 ft 9 kts 350°
2026-05-06 13:34 40.63023 8.29302 79 ft 2 kts
2026-05-06 13:35 40.63025 8.29302 79 ft 0 kts